Probability
1 1 1 1 0 0 0 0 0 0 0 0 0 0 0 0 0 0 0 0 0 0 0 0 0 0 0 0 0 0 0 0 0 0 0 0 0 0 0 0 0 0 0
2 1 2 2 1 0 0 1 1 0 0 0 0 0 0 0 0 0 0 0 0 0 0 0 0 1 1 0 0 0 0 0 0 0 0 0 0 0 0 0 0 0 0
3 2 3 2 1 0 1 2 2 1 1 1 0 0 0 0 0 0 0 0 0 0 0 0 1 2 2 1 0 0 0 0 0 0 0 0 0 0 0 0 0 0 0
3 3 3 2 1 2 3 4 4 3 3 2 1 0 1 1 1 0 0 0 0 0 0 1 2 3 3 2 1 0 0 0 0 0 0 0 0 0 0 0 0 0 0
3 2 2 2 2 3 4 5 6 6 5 5 3 2 2 2 2 1 1 1 1 1 1 2 3 3 3 3 2 1 0 0 0 0 0 0 0 0 0 0 0 0 0
2 2 2 3 3 4 4 5 7 8 8 8 7 4 3 3 3 3 3 3 2 2 3 3 3 3 3 3 3 2 1 0 0 0 0 0 0 0 0 0 0 0 0
2 2 2 3 4 4 5 6 7 9 9 10 9 7 4 4 4 4 4 3 2 3 3 2 2 3 3 3 3 3 2 1 0 0 0 0 0 0 0 0 0 0 0
2 2 2 3 3 3 4 6 7 8 9 10 10 9 7 5 5 5 4 3 2 2 1 1 1 1 2 2 2 2 2 1 0 0 0 0 0 0 0 0 0 0 0
3 2 2 2 2 3 4 7 8 8 8 9 10 10 8 7 8 8 7 5 3 2 1 0 0 0 1 1 1 1 1 0 0 0 0 0 0 0 0 0 0 0 0
3 3 3 3 4 4 5 6 7 7 7 7 8 8 9 10 10 10 10 8 6 4 3 2 1 1 1 1 1 0 0 0 0 0 0 0 0 0 0 0 0 0 0
3 4 4 5 5 5 5 5 5 5 6 6 7 8 10 11 11 11 11 11 9 6 5 5 4 3 2 1 1 1 1 0 0 0 0 1 1 1 1 1 0 0 0
4 4 4 6 6 5 4 5 5 5 6 5 7 9 11 12 11 10 10 11 9 7 7 7 6 5 4 4 3 3 2 1 1 1 1 3 3 3 3 3 2 2 2
5 4 5 7 7 5 5 7 7 6 6 6 7 10 12 12 11 9 9 9 8 8 8 8 8 7 7 7 6 5 4 3 2 2 3 4 5 6 6 6 6 5 5
6 5 6 9 9 7 7 8 8 8 8 10 13 14 13 13 12 10 9 8 7 8 9 9 10 9 9 8 6 5 4 3 3 3 3 4 6 7 8 9 8 7 7
7 6 7 10 11 8 7 9 10 9 10 15 19 20 17 15 13 10 9 7 7 7 7 8 9 9 8 6 3 2 2 2 1 1 2 4 6 7 7 8 8 8 8
8 8 9 11 12 8 7 10 13 11 12 16 20 21 20 17 14 11 9 8 7 6 6 6 7 8 6 3 1 1 1 1 1 1 3 5 5 5 5 5 7 7 7
8 10 14 15 13 12 12 15 18 16 15 16 17 18 18 16 14 12 11 9 8 7 6 6 7 7 4 1 0 0 1 1 1 3 5 7 7 7 7 6 5 5 5
10 12 16 17 17 17 19 22 23 22 19 18 17 15 14 13 11 10 11 11 10 9 8 8 8 7 5 2 0 0 1 2 2 5 7 8 8 8 9 8 7 5 5
12 14 16 18 19 20 22 24 25 25 23 21 20 17 13 11 10 9 10 11 11 11 11 10 10 10 7 3 0 1 2 4 5 6 7 7 7 7 6 7 7 6 5
15 17 18 17 17 18 21 22 24 26 25 24 21 17 13 11 10 11 11 11 12 12 12 13 12 11 9 5 1 1 4 6 6 6 6 6 6 4 3 3 5 5 4
16 17 17 15 14 16 19 20 20 21 22 21 19 15 12 11 11 12 14 14 14 13 14 13 13 12 11 7 3 2 4 6 6 6 6 6 4 2 1 1 2 2 2
15 14 13 13 13 14 17 17 15 13 12 13 14 13 12 12 12 14 15 16 15 15 15 14 13 13 12 10 6 3 2 3 5 6 6 5 3 1 0 0 1 1 0
14 12 12 12 13 13 14 13 9 6 6 8 10 11 12 12 13 15 17 16 15 14 14 14 13 13 13 11 8 4 2 1 3 5 4 3 1 0 0 0 0 0 0
13 12 11 11 11 11 10 8 6 5 6 7 7 8 10 12 12 13 14 14 13 13 13 12 12 13 12 11 8 6 3 2 3 4 4 3 2 1 1 0 0 0 0
9 9 8 8 9 9 8 6 6 6 7 8 6 6 8 10 10 9 10 10 10 10 9 8 9 10 9 7 6 5 4 3 3 4 6 6 4 2 1 0 0 0 0
5 6 6 6 6 8 8 6 7 8 9 9 6 5 7 9 9 8 7 7 7 7 5 5 6 6 5 3 2 2 2 2 2 4 7 8 5 2 1 0 0 0 0
Wind_Speed
7 6 6 6 5 4 4 4 4 3 3 2 2 2 1 0 0 0 0 1 1 2 2 2 2 2 2 2 2 2 2 1 1 1 1 2 1 1 0 0 0 1 1
6 6 6 6 6 6 5 5 4 4 4 3 2 2 2 1 1 0 0 0 1 2 2 3 2 2 2 2 2 2 2 1 1 2 1 1 2 1 1 0 0 1 1
11 9 8 7 6 7 7 6 5 4 4 3 2 2 2 2 1 1 0 0 1 1 2 3 3 2 2 2 2 3 3 2 1 1 2 2 2 1 1 1 0 1 1
10 9 9 8 8 8 7 6 5 5 4 4 4 4 3 2 2 1 1 0 1 1 2 2 3 3 2 2 2 2 2 3 1 1 1 1 2 1 1 1 1 1 1
10 11 11 10 8 7 6 6 5 5 5 5 5 4 3 2 1 1 1 0 0 0 1 2 2 2 2 2 2 2 2 2 2 2 2 1 1 1 2 1 1 1 1
9 9 9 8 7 6 6 6 6 6 5 6 5 5 5 4 3 2 2 1 0 0 0 1 2 2 2 2 2 2 3 2 3 2 2 2 2 2 2 2 1 1 2
9 9 9 9 9 9 8 7 7 7 6 6 6 6 6 6 5 4 3 2 1 1 1 1 2 2 2 2 2 2 2 3 3 2 2 2 2 2 2 2 1 1 1
9 9 10 10 10 9 9 8 8 7 6 6 6 5 5 4 3 4 3 3 2 2 2 2 2 2 2 2 2 2 2 2 2 2 2 2 1 2 2 2 2 1 1
9 10 9 9 9 9 9 9 8 7 7 7 6 5 5 5 4 4 3 2 2 2 2 2 2 2 2 2 2 1 2 2 2 2 2 2 1 1 2 2 2 2 1
7 8 8 8 8 8 8 7 8 8 7 6 6 5 5 5 4 4 4 3 3 2 2 2 2 2 2 2 2 2 2 2 1 1 2 1 1 1 1 2 1 2 2
8 8 7 7 7 6 7 7 7 6 6 6 6 5 5 4 4 4 4 4 3 3 3 2 2 2 2 2 3 3 2 2 1 1 2 2 2 1 1 1 1 2 2
6 6 6 6 7 7 7 7 7 7 6 6 5 5 4 4 4 4 4 3 3 2 3 3 2 2 2 2 3 3 2 2 2 2 2 2 2 2 1 1 2 2 3
4 4 5 5 6 6 7 7 7 7 6 5 5 5 5 5 5 4 4 3 3 3 3 3 3 3 3 3 3 3 3 3 3 3 3 3 2 2 2 2 2 2 2
5 5 4 4 5 5 5 6 5 6 6 6 6 6 6 6 5 5 4 4 4 4 4 4 3 3 3 3 2 3 3 2 2 3 3 3 4 4 3 3 3 3 2
4 5 6 5 4 4 4 5 5 5 5 6 6 6 5 5 4 4 4 4 4 4 4 4 3 3 3 3 3 3 3 2 2 2 2 3 4 5 4 3 3 3 2
5 5 6 5 5 5 5 5 5 5 5 6 6 5 5 5 5 4 4 4 4 3 3 3 4 4 3 4 5 4 3 3 3 2 2 3 3 4 4 5 5 4 4
5 5 5 5 5 5 5 6 5 4 5 5 5 5 5 5 4 4 4 4 4 4 4 4 3 4 4 5 5 5 4 3 3 3 2 2 2 2 2 3 3 4 5
4 4 4 3 3 4 4 5 5 5 4 4 3 3 4 4 3 3 4 4 3 4 3 3 3 3 3 4 5 5 3 3 4 4 4 3 3 3 2 2 2 3 3
3 3 3 3 3 4 4 5 5 4 4 3 3 3 4 3 3 3 3 3 3 3 3 2 3 3 3 4 5 4 3 3 4 4 3 3 4 4 3 2 3 4 4
1 1 2 3 4 3 5 5 4 4 3 3 3 3 4 4 4 4 3 2 2 3 3 2 2 3 3 4 5 5 3 3 3 2 3 3 3 4 3 3 3 5 5
2 3 4 3 3 4 5 5 4 3 3 3 3 3 3 3 3 3 2 2 2 2 2 2 2 2 3 3 4 5 3 4 3 3 2 2 3 3 3 3 4 6 5
4 4 5 4 3 4 5 4 3 2 2 3 3 2 2 2 2 2 2 2 2 2 2 1 1 2 2 2 4 5 5 4 3 3 3 3 4 4 3 3 4 5 3
4 3 5 4 4 3 4 3 2 2 3 3 2 2 2 2 2 3 2 2 2 2 2 2 2 2 2 2 3 4 5 5 4 3 3 4 4 4 3 4 3 2 2
3 4 5 5 3 2 2 2 2 3 4 3 2 2 2 1 1 1 2 2 2 2 2 2 2 3 2 2 2 2 2 3 3 3 3 3 3 2 3 3 2 2 2
3 4 4 4 2 1 1 1 2 3 4 3 2 2 1 1 1 1 1 2 2 3 3 3 3 3 3 3 3 2 2 2 2 1 1 1 1 1 2 2 2 2 2
3 3 4 4 2 2 1 1 1 3 4 3 2 1 1 1 1 1 1 2 0 1 2 2 2 2 3 3 2 3 4 3 2 1 1 2 2 2 3 3 3 3 3
Wind_Direction
203 185 181 178 169 171 172 170 166 166 150 141 144 143 174 206 279 255 215 167 145 136 130 128 123 127 132 143 143 129 112 99 116 95 35 14 23 47 288 255 296 312 307
193 188 182 181 180 181 183 181 181 175 173 172 160 155 153 162 188 298 24 137 148 144 142 140 142 140 132 130 139 133 131 132 127 128 110 3 345 3 12 339 230 283 326
196 193 188 189 186 189 191 191 189 184 180 166 125 100 78 56 46 11 344 323 140 137 138 149 150 152 157 167 169 161 159 165 159 128 143 155 231 310 348 344 335 327 324
196 192 190 191 196 197 189 188 186 185 178 161 154 157 163 181 209 204 197 56 107 145 152 152 157 162 164 170 184 168 165 154 175 182 172 170 164 159 326 339 359 355 307
197 194 194 196 198 191 184 186 184 187 179 169 170 166 177 195 189 149 128 121 40 135 155 157 164 167 172 176 172 160 157 161 173 177 164 146 128 146 164 271 321 343 302
197 197 194 186 190 184 180 181 183 192 186 178 178 179 185 183 172 174 172 186 209 305 179 159 164 174 175 177 179 171 165 171 170 169 162 159 164 181 175 202 247 282 298
191 192 188 188 190 188 187 184 186 197 190 184 187 190 193 188 189 191 188 186 199 227 228 194 181 183 191 187 176 166 175 179 173 176 174 174 178 164 161 167 192 250 299
189 192 194 193 194 194 191 187 189 195 187 188 193 190 188 188 193 191 187 194 206 218 212 195 195 194 190 191 179 176 186 174 179 172 164 168 190 175 177 174 164 189 296
192 193 192 194 194 192 192 190 188 191 189 190 188 190 189 188 190 188 189 198 208 208 198 196 201 205 199 189 166 167 181 164 176 180 168 175 193 180 183 182 178 176 216
193 193 190 192 194 193 190 185 187 193 192 188 192 197 196 195 191 183 195 203 208 203 191 200 204 204 202 180 155 158 169 159 183 178 162 176 190 177 169 187 194 195 197
193 194 190 187 184 180 180 183 188 188 189 193 193 190 190 189 186 194 203 205 205 195 192 198 196 197 195 179 166 175 171 175 195 194 184 203 192 187 194 190 188 197 196
192 186 182 174 173 177 180 184 187 191 196 192 186 190 182 174 182 196 201 192 191 195 195 189 188 194 191 180 171 175 176 185 199 205 195 218 204 204 212 202 212 213 207
172 167 166 169 177 185 186 187 188 191 188 180 181 182 181 179 189 195 197 192 191 198 197 188 193 197 191 181 179 178 185 195 208 208 204 217 203 216 216 214 225 227 221
168 168 175 182 184 186 185 184 186 184 180 175 180 187 190 191 194 192 191 194 193 194 193 190 190 193 193 190 185 182 196 206 217 221 220 221 214 219 220 217 226 224 215
172 179 185 190 190 184 183 180 178 175 175 174 184 195 191 186 185 185 189 195 196 199 194 190 189 192 194 200 192 192 199 206 221 233 236 235 227 223 220 217 214 206 206
194 191 185 182 187 190 188 180 176 169 165 174 187 183 172 176 185 184 185 189 195 198 193 200 199 201 210 199 195 188 196 199 209 228 248 248 237 238 236 227 214 202 202
203 196 192 189 189 188 177 175 173 160 163 178 181 174 171 179 188 180 176 190 199 197 200 206 206 213 218 206 203 200 193 201 217 221 234 257 257 250 246 239 232 235 227
209 201 189 187 184 170 163 157 148 151 160 170 170 166 164 174 174 169 183 192 194 195 205 208 212 220 227 212 207 204 198 212 226 227 227 237 257 258 243 250 263 264 252
217 209 193 172 153 147 142 133 136 140 149 167 173 173 166 161 164 178 193 188 181 194 210 214 212 221 240 221 209 197 197 221 236 237 234 236 250 259 237 229 257 277 280
125 126 123 123 125 124 126 126 129 132 157 177 178 166 160 161 175 188 188 183 181 197 205 218 221 226 239 230 210 192 195 220 239 248 244 238 250 266 238 219 234 257 268
100 103 103 108 118 115 121 127 133 165 183 168 157 153 159 168 173 175 168 164 174 186 198 209 236 239 244 241 220 205 207 213 225 243 255 250 254 260 253 224 232 246 255
84 97 101 95 95 108 119 128 154 183 148 129 132 141 147 149 145 142 142 147 151 159 186 209 257 273 267 253 238 219 218 220 221 237 244 252 256 255 254 239 252 258 251
96 95 108 99 92 101 118 141 172 145 125 119 128 136 126 123 136 149 158 160 162 173 201 215 248 273 277 262 250 240 233 224 225 243 252 262 267 264 260 260 262 242 230
105 99 104 105 92 93 132 160 147 129 125 127 127 118 116 118 128 147 163 171 184 194 208 222 245 263 271 267 260 252 242 235 236 252 264 264 264 255 266 278 261 237 233
98 103 113 117 112 104 105 94 118 125 120 121 118 114 125 141 150 148 167 191 213 209 205 223 224 232 260 264 237 219 233 234 237 234 255 270 280 284 282 275 268 254 247
102 101 94 92 92 81 63 66 122 127 122 116 115 121 130 142 147 143 44 26 263 270 215 232 232 244 251 275 258 239 239 234 193 163 242 262 267 266 268 269 267 255 252